📊 Raw Sensor Data

Showing records 35226 to 35250 of 84,874 total

ID Distance (ft) Battery V Battery A Int Temp (°F) Int Humid (%) Ext Temp (°F) Solar V RSSI SNR Time Stamp
49661 15.2 4.07 0 106 48 94 5.10 -69 7 08/19/2025 05:30 PM
49660 15.2 3.86 0 107 47 96 5.10 -71 8 08/19/2025 05:15 PM
49659 15.2 3.82 0 107 46 97 5.10 -69 8 08/19/2025 05:00 PM
49658 15.2 4.05 0 108 45 97 5.10 -69 8 08/19/2025 04:45 PM
49657 15.2 3.82 0 108 45 97 5.10 -70 8 08/19/2025 04:30 PM
49656 15.2 3.86 0 107 44 95 5.10 -70 8 08/19/2025 04:15 PM
49655 15.2 3.82 0 107 44 94 5.10 -69 8 08/19/2025 04:00 PM
49654 15.1 3.82 0 106 44 96 5.10 -70 8 08/19/2025 03:45 PM
49653 15.1 3.87 0 106 43 95 5.10 -69 8 08/19/2025 03:30 PM
49652 15.1 3.82 0 106 42 92 5.10 -69 7 08/19/2025 03:15 PM
49651 15.1 3.82 0 105 41 96 5.10 -70 8 08/19/2025 03:00 PM
49650 15.1 3.86 0 104 41 92 5.20 -69 7 08/19/2025 02:45 PM
49649 15.1 3.82 0 102 40 91 5.10 -70 7 08/19/2025 02:30 PM
49648 15.1 3.82 0 99 41 90 5.10 -69 8 08/19/2025 02:15 PM
49647 15.1 3.82 0 97 41 90 5.10 -69 8 08/19/2025 02:00 PM
49646 15.1 3.92 0 97 41 87 5.10 -69 8 08/19/2025 01:45 PM
49645 15.1 3.82 0 95 41 89 5.10 -70 8 08/19/2025 01:30 PM
49644 15.1 3.93 0 93 42 84 5.10 -70 8 08/19/2025 01:15 PM
49643 15.1 3.82 0 92 42 86 5.10 -70 8 08/19/2025 01:00 PM
49642 15.1 3.82 0 90 42 83 5.10 -70 8 08/19/2025 12:45 PM
49641 15.0 3.82 0 89 42 81 5.10 -68 7 08/19/2025 12:30 PM
49640 15.1 3.84 0 87 42 82 5.10 -70 7 08/19/2025 12:15 PM
49639 15.1 3.82 0 86 42 81 5.10 -70 8 08/19/2025 12:00 PM
49638 15.1 3.82 0 84 42 81 5.10 -71 8 08/19/2025 11:45 AM
49637 15.1 3.82 0 82 42 79 5.10 -71 8 08/19/2025 11:30 AM